Regional Weather Roundup
Issued by NWS

Home | Current Version | Previous Version | Text Only | Print | Product List | Glossary On
Versions: 1 2 3 4 5 6 7 8 9 10 11 12 13 14 15 16 17 18 19 20 21 22 23 24 25 26 27 28 29 30 31 32 33 34 35 36 37 38 39 40 41 42 43 44 45 46 47 48 49 50
000
ASUS44 KBMX 191010
RWRAL

ALABAMA REGIONAL WEATHER ROUNDUP
NATIONAL WEATHER SERVICE BIRMINGHAM AL
400 AM CST FRI DEC 19 2014

NOTE: "FAIR" INDICATES FEW OR NO CLOUDS BELOW 12,000 FEET
WITH NO SIGNIFICANT WEATHER AND/OR OBSTRUCTIONS TO VISIBILITY.

THE REMARK "TC" DENOTES TEMPERATURE IN DEGREES CELSIUS.

ALZ001>011-014-016>018-020-191100-
NORTH ALABAMA

CITY           SKY/WX    TMP DP  RH WIND       PRES   REMARKS
MUSCLE SHOALS  CLOUDY    40  33  76 NE5       30.20F
HUNTSVILLE     MOCLDY    35  32  88 CALM      30.19F FOG
DECATUR        CLOUDY    34  32  92 CALM      30.21S FOG
HALEYVILLE     MOCLDY    39  36  89 CALM      30.19F
GADSDEN        PTCLDY    30  27  86 CALM      30.17F
$$

ALZ012-013-022-023-030>036-040>044-191100-
WEST CENTRAL ALABAMA

CITY           SKY/WX    TMP DP  RH WIND       PRES   REMARKS
TUSCALOOSA     PTCLDY    34  32  92 CALM      30.20R
$$

ALZ015-024>027-033>036-040>044-191100-
CENTRAL ALABAMA

CITY           SKY/WX    TMP DP  RH WIND       PRES   REMARKS
BIRMINGHAM     MOCLDY    34  32  92 CALM      30.18F
MONTGOMERY     PTCLDY    41  34  76 N3        30.16F
SHELBY CO ARPT PTCLDY    36  34  92 CALM      30.16F
MAXWELL AFB    PTCLDY    40  35  83 N6        30.15F
GREENVILLE     NOT AVBL
$$

ALZ019-021-028-029-037-038-045>048-191100-
EAST CENTRAL ALABAMA

CITY           SKY/WX    TMP DP  RH WIND       PRES   REMARKS
ANNISTON       PTCLDY    31  29  92 CALM      30.17F
ALEXANDER CITY MOCLDY    36  32  86 CALM      30.15S
AUBURN         MOCLDY    39  28  65 N8        30.16F WCI  34
$$

ALZ051>064-191100-
SOUTHWEST ALABAMA

CITY           SKY/WX    TMP DP  RH WIND       PRES   REMARKS
MOBILE         CLOUDY    50  32  50 NE9       30.12F
BROOKLEY FIELD CLOUDY    54  48  80 N12       30.13F
EVERGREEN      CLOUDY    51  41  68 N3        30.14S
$$

ALZ049-050-065>069-191100-
SOUTHEAST ALABAMA

CITY           SKY/WX    TMP DP  RH WIND       PRES   REMARKS
DOTHAN         CLOUDY    50  36  58 N5        30.15F
OZARK          CLOUDY    51  35  53 N5        30.13S
TROY           PTCLDY    41  36  82 CALM      30.15R
EUFAULA        FAIR      42  36  79 N3        30.13S
$$



USA.gov is the U.S. government's official web portal to all federal, state and local government web resources and services.